Year,Month,Day,Hour,Minute,Value (Times are PST for temperature in C)
2012,06,25,00,00,10.10
2012,06,25,00,01,10.10
2012,06,25,00,02,10.00
2012,06,25,00,03,9.90
2012,06,25,00,04,9.90
2012,06,25,00,05,9.90
2012,06,25,00,06,9.80
2012,06,25,00,07,9.70
2012,06,25,00,08,9.70
2012,06,25,00,09,9.60
2012,06,25,00,10,9.50
2012,06,25,00,11,9.50
2012,06,25,00,12,9.40
2012,06,25,00,13,9.30
2012,06,25,00,14,9.30
2012,06,25,00,15,9.20
2012,06,25,00,16,9.20
2012,06,25,00,17,9.20
2012,06,25,00,18,9.10
2012,06,25,00,19,9.10
2012,06,25,00,20,9.00
2012,06,25,00,21,9.00
2012,06,25,00,22,9.00
2012,06,25,00,23,9.00
2012,06,25,00,24,9.00
2012,06,25,00,25,9.00
2012,06,25,00,26,8.90
2012,06,25,00,27,8.90
2012,06,25,00,28,8.90
2012,06,25,00,29,8.90
2012,06,25,00,30,8.90
2012,06,25,00,31,8.90
2012,06,25,00,32,8.90
2012,06,25,00,33,8.90
2012,06,25,00,34,8.90
2012,06,25,00,35,8.90
2012,06,25,00,36,9.00
2012,06,25,00,37,9.00
2012,06,25,00,38,9.00
2012,06,25,00,39,9.00
2012,06,25,00,40,9.10
2012,06,25,00,41,9.10
2012,06,25,00,42,9.10
2012,06,25,00,43,9.10
2012,06,25,00,44,9.10
2012,06,25,00,45,9.10
2012,06,25,00,46,9.10
2012,06,25,00,47,9.10
2012,06,25,00,48,9.10
2012,06,25,00,49,9.10
2012,06,25,00,50,9.00
2012,06,25,00,51,9.00
2012,06,25,00,52,9.00
2012,06,25,00,53,9.00
2012,06,25,00,54,9.00
2012,06,25,00,55,9.00
2012,06,25,00,56,9.00
2012,06,25,00,57,8.90
2012,06,25,00,58,8.90
2012,06,25,00,59,8.90
2012,06,25,01,00,8.90
2012,06,25,01,01,8.90
2012,06,25,01,02,8.90
2012,06,25,01,03,8.90
2012,06,25,01,04,8.80
2012,06,25,01,05,8.70
2012,06,25,01,06,8.70
2012,06,25,01,07,8.60
2012,06,25,01,08,8.60
2012,06,25,01,09,8.50
2012,06,25,01,10,8.40
2012,06,25,01,11,8.40
2012,06,25,01,12,8.30
2012,06,25,01,13,8.30
2012,06,25,01,14,8.20
2012,06,25,01,15,8.20
2012,06,25,01,16,8.20
2012,06,25,01,17,8.10
2012,06,25,01,18,8.10
2012,06,25,01,19,8.10
2012,06,25,01,20,8.10
2012,06,25,01,21,8.00
2012,06,25,01,22,8.00
2012,06,25,01,23,8.00
2012,06,25,01,24,8.00
2012,06,25,01,25,8.00
2012,06,25,01,26,8.00
2012,06,25,01,27,8.00
2012,06,25,01,28,8.00
2012,06,25,01,29,8.10
2012,06,25,01,30,8.10
2012,06,25,01,31,8.10
2012,06,25,01,32,8.10
2012,06,25,01,33,8.10
2012,06,25,01,34,8.10
2012,06,25,01,35,8.10
2012,06,25,01,36,8.10
2012,06,25,01,37,8.10
2012,06,25,01,38,8.10
2012,06,25,01,39,8.10
2012,06,25,01,40,8.10
2012,06,25,01,41,8.10
2012,06,25,01,42,8.10
2012,06,25,01,43,8.00
2012,06,25,01,44,8.00
2012,06,25,01,45,8.00
2012,06,25,01,46,8.00
2012,06,25,01,47,7.90
2012,06,25,01,48,7.90
2012,06,25,01,49,7.90
2012,06,25,01,50,7.90
2012,06,25,01,51,7.80
2012,06,25,01,52,7.80
2012,06,25,01,53,7.80
2012,06,25,01,54,7.80
2012,06,25,01,55,7.80
2012,06,25,01,56,7.80
2012,06,25,01,57,7.80
2012,06,25,01,58,7.80
2012,06,25,01,59,7.80
2012,06,25,02,00,7.80
2012,06,25,02,01,7.80
2012,06,25,02,02,7.80
2012,06,25,02,03,7.80
2012,06,25,02,04,7.80
2012,06,25,02,05,7.70
2012,06,25,02,06,7.70
2012,06,25,02,07,7.60
2012,06,25,02,08,7.60
2012,06,25,02,09,7.50
2012,06,25,02,10,7.40
2012,06,25,02,11,7.40
2012,06,25,02,12,7.30
2012,06,25,02,13,7.30
2012,06,25,02,14,7.30
2012,06,25,02,15,7.30
2012,06,25,02,16,7.20
2012,06,25,02,17,7.20
2012,06,25,02,18,7.10
2012,06,25,02,19,7.10
2012,06,25,02,20,7.10
2012,06,25,02,21,7.00
2012,06,25,02,22,7.00
2012,06,25,02,23,7.00
2012,06,25,02,24,7.00
2012,06,25,02,25,7.00
2012,06,25,02,26,7.00
2012,06,25,02,27,6.90
2012,06,25,02,28,6.90
2012,06,25,02,29,6.90
2012,06,25,02,30,6.90
2012,06,25,02,31,6.90
2012,06,25,02,32,6.90
2012,06,25,02,33,7.00
2012,06,25,02,34,7.00
2012,06,25,02,35,7.00
2012,06,25,02,36,7.00
2012,06,25,02,37,7.00
2012,06,25,02,38,7.00
2012,06,25,02,39,7.00
2012,06,25,02,40,7.00
2012,06,25,02,41,7.00
2012,06,25,02,42,7.00
2012,06,25,02,43,7.00
2012,06,25,02,44,7.00
2012,06,25,02,45,7.00
2012,06,25,02,46,7.00
2012,06,25,02,47,7.00
2012,06,25,02,48,7.10
2012,06,25,02,49,7.10
2012,06,25,02,50,7.10
2012,06,25,02,51,7.10
2012,06,25,02,52,7.10
2012,06,25,02,53,7.10
2012,06,25,02,54,7.20
2012,06,25,02,55,7.20
2012,06,25,02,56,7.20
2012,06,25,02,57,7.20
2012,06,25,02,58,7.20
2012,06,25,02,59,7.30
2012,06,25,03,00,7.20
2012,06,25,03,01,7.20
2012,06,25,03,02,7.20
2012,06,25,03,03,7.20
2012,06,25,03,04,7.20
2012,06,25,03,05,7.20
2012,06,25,03,06,7.20
2012,06,25,03,07,7.10
2012,06,25,03,08,7.10
2012,06,25,03,09,7.10
2012,06,25,03,10,7.10
2012,06,25,03,11,7.10
2012,06,25,03,12,7.10
2012,06,25,03,13,7.10
2012,06,25,03,14,7.10
2012,06,25,03,15,7.10
2012,06,25,03,16,7.10
2012,06,25,03,17,7.10
2012,06,25,03,18,7.10
2012,06,25,03,19,7.10
2012,06,25,03,20,7.10
2012,06,25,03,21,7.10
2012,06,25,03,22,7.10
2012,06,25,03,23,7.10
2012,06,25,03,24,7.10
2012,06,25,03,25,7.10
2012,06,25,03,26,7.20
2012,06,25,03,27,7.20
2012,06,25,03,28,7.20
2012,06,25,03,29,7.20
2012,06,25,03,30,7.20
2012,06,25,03,31,7.20
2012,06,25,03,32,7.30
2012,06,25,03,33,7.30
2012,06,25,03,34,7.30
2012,06,25,03,35,7.30
2012,06,25,03,36,7.30
2012,06,25,03,37,7.30
2012,06,25,03,38,7.30
2012,06,25,03,39,7.30
2012,06,25,03,40,7.30
2012,06,25,03,41,7.40
2012,06,25,03,42,7.40
2012,06,25,03,43,7.40
2012,06,25,03,44,7.40
2012,06,25,03,45,7.40
2012,06,25,03,46,7.40
2012,06,25,03,47,7.40
2012,06,25,03,48,7.40
2012,06,25,03,49,7.40
2012,06,25,03,50,7.40
2012,06,25,03,51,7.40
2012,06,25,03,52,7.40
2012,06,25,03,53,7.30
2012,06,25,03,54,7.30
2012,06,25,03,55,7.30
2012,06,25,03,56,7.30
2012,06,25,03,57,7.30
2012,06,25,03,58,7.30
2012,06,25,03,59,7.30
2012,06,25,04,00,7.40
2012,06,25,04,01,7.40
2012,06,25,04,02,7.40
2012,06,25,04,03,7.40
2012,06,25,04,04,7.40
2012,06,25,04,05,7.40
2012,06,25,04,06,7.40
2012,06,25,04,07,7.40
2012,06,25,04,08,7.40
2012,06,25,04,09,7.40
2012,06,25,04,10,7.50
2012,06,25,04,11,7.50
2012,06,25,04,12,7.50
2012,06,25,04,13,7.50
2012,06,25,04,14,7.50
2012,06,25,04,15,7.50
2012,06,25,04,16,7.50
2012,06,25,04,17,7.50
2012,06,25,04,18,7.50
2012,06,25,04,19,7.50
2012,06,25,04,20,7.50
2012,06,25,04,21,7.50
2012,06,25,04,22,7.50
2012,06,25,04,23,7.60
2012,06,25,04,24,7.60
2012,06,25,04,25,7.60
2012,06,25,04,26,7.60
2012,06,25,04,27,7.50
2012,06,25,04,28,7.50
2012,06,25,04,29,7.50
2012,06,25,04,30,7.50
2012,06,25,04,31,7.50
2012,06,25,04,32,7.50
2012,06,25,04,33,7.50
2012,06,25,04,34,7.50
2012,06,25,04,35,7.50
2012,06,25,04,36,7.50
2012,06,25,04,37,7.50
2012,06,25,04,38,7.60
2012,06,25,04,39,7.60
2012,06,25,04,40,7.60
2012,06,25,04,41,7.60
2012,06,25,04,42,7.70
2012,06,25,04,43,7.70
2012,06,25,04,44,7.70
2012,06,25,04,45,7.70
2012,06,25,04,46,7.70
2012,06,25,04,47,7.60
2012,06,25,04,48,7.60
2012,06,25,04,49,7.50
2012,06,25,04,50,7.30
2012,06,25,04,51,7.30
2012,06,25,04,52,7.20
2012,06,25,04,53,7.10
2012,06,25,04,54,7.10
2012,06,25,04,55,7.00
2012,06,25,04,56,7.00
2012,06,25,04,57,7.00
2012,06,25,04,58,7.00
2012,06,25,04,59,6.90
2012,06,25,05,00,6.90
2012,06,25,05,01,6.90
2012,06,25,05,02,6.90
2012,06,25,05,03,6.80
2012,06,25,05,04,6.80
2012,06,25,05,05,6.80
2012,06,25,05,06,6.90
2012,06,25,05,07,6.90
2012,06,25,05,08,6.90
2012,06,25,05,09,6.90
2012,06,25,05,10,6.90
2012,06,25,05,11,6.90
2012,06,25,05,12,6.90
2012,06,25,05,13,6.90
2012,06,25,05,14,6.90
2012,06,25,05,15,6.80
2012,06,25,05,16,6.80
2012,06,25,05,17,6.80
2012,06,25,05,18,6.80
2012,06,25,05,19,6.80
2012,06,25,05,20,6.80
2012,06,25,05,21,6.80
2012,06,25,05,22,6.80
2012,06,25,05,23,6.80
2012,06,25,05,24,6.90
2012,06,25,05,25,6.90
2012,06,25,05,26,6.90
2012,06,25,05,27,6.90
2012,06,25,05,28,6.90
2012,06,25,05,29,6.90
2012,06,25,05,30,6.90
2012,06,25,05,31,6.90
2012,06,25,05,32,6.80
2012,06,25,05,33,6.80
2012,06,25,05,34,6.80
2012,06,25,05,35,6.80
2012,06,25,05,36,6.80
2012,06,25,05,37,6.70
2012,06,25,05,38,6.70
2012,06,25,05,39,6.70
2012,06,25,05,40,6.60
2012,06,25,05,41,6.60
2012,06,25,05,42,6.60
2012,06,25,05,43,6.60
2012,06,25,05,44,6.60
2012,06,25,05,45,6.60
2012,06,25,05,46,6.60
2012,06,25,05,47,6.50
2012,06,25,05,48,6.40
2012,06,25,05,49,6.40
2012,06,25,05,50,6.40
2012,06,25,05,51,6.40
2012,06,25,05,52,6.40
2012,06,25,05,53,6.40
2012,06,25,05,54,6.40
2012,06,25,05,55,6.40
2012,06,25,05,56,6.40
2012,06,25,05,57,6.40
2012,06,25,05,58,6.50
2012,06,25,05,59,6.60
2012,06,25,06,00,6.60
2012,06,25,06,01,6.60
2012,06,25,06,02,6.60
2012,06,25,06,03,6.70
2012,06,25,06,04,6.70
2012,06,25,06,05,6.70
2012,06,25,06,06,6.80
2012,06,25,06,07,6.80
2012,06,25,06,08,6.80
2012,06,25,06,09,6.80
2012,06,25,06,10,6.80
2012,06,25,06,11,6.80
2012,06,25,06,12,6.80
2012,06,25,06,13,6.80
2012,06,25,06,14,6.80
2012,06,25,06,15,6.80
2012,06,25,06,16,6.80
2012,06,25,06,17,6.80
2012,06,25,06,18,6.90
2012,06,25,06,19,6.90
2012,06,25,06,20,6.90
2012,06,25,06,21,7.00
2012,06,25,06,22,7.10
2012,06,25,06,23,7.10
2012,06,25,06,24,7.20
2012,06,25,06,25,7.20
2012,06,25,06,26,7.20
2012,06,25,06,27,7.30
2012,06,25,06,28,7.30
2012,06,25,06,29,7.30
2012,06,25,06,30,7.40
2012,06,25,06,31,7.50
2012,06,25,06,32,7.60
2012,06,25,06,33,7.70
2012,06,25,06,34,7.80
2012,06,25,06,35,7.80
2012,06,25,06,36,7.90
2012,06,25,06,37,7.90
2012,06,25,06,38,8.00
2012,06,25,06,39,8.10
2012,06,25,06,40,8.20
2012,06,25,06,41,8.20
2012,06,25,06,42,8.20
2012,06,25,06,43,8.30
2012,06,25,06,44,8.40
2012,06,25,06,45,8.50
2012,06,25,06,46,8.50
2012,06,25,06,47,8.60
2012,06,25,06,48,8.70
2012,06,25,06,49,8.80
2012,06,25,06,50,8.90
2012,06,25,06,51,9.00
2012,06,25,06,52,9.10
2012,06,25,06,53,9.30
2012,06,25,06,54,9.40
2012,06,25,06,55,9.60
2012,06,25,06,56,9.70
2012,06,25,06,57,9.80
2012,06,25,06,58,10.00
2012,06,25,06,59,10.10
2012,06,25,07,00,10.30
2012,06,25,07,01,10.40
2012,06,25,07,02,10.50
2012,06,25,07,03,10.70
2012,06,25,07,04,10.80
2012,06,25,07,05,10.90
2012,06,25,07,06,11.10
2012,06,25,07,07,11.20
2012,06,25,07,08,11.30
2012,06,25,07,09,11.40
2012,06,25,07,10,11.50
2012,06,25,07,11,11.60
2012,06,25,07,12,11.80
2012,06,25,07,13,11.80
2012,06,25,07,14,11.90
2012,06,25,07,15,12.00
2012,06,25,07,16,12.10
2012,06,25,07,17,12.20
2012,06,25,07,18,12.20
2012,06,25,07,19,12.30
2012,06,25,07,20,12.40
2012,06,25,07,21,12.50
2012,06,25,07,22,12.50
2012,06,25,07,23,12.60
2012,06,25,07,24,12.70
2012,06,25,07,25,12.80
2012,06,25,07,26,12.80
2012,06,25,07,27,12.90
2012,06,25,07,28,13.00
2012,06,25,07,29,13.00
2012,06,25,07,30,13.10
2012,06,25,07,31,13.10
2012,06,25,07,32,13.20
2012,06,25,07,33,13.20
2012,06,25,07,34,13.30
2012,06,25,07,35,13.30
2012,06,25,07,36,13.30
2012,06,25,07,37,13.30
2012,06,25,07,38,13.30
2012,06,25,07,39,13.30
2012,06,25,07,40,13.30
2012,06,25,07,41,13.30
2012,06,25,07,42,13.30
2012,06,25,07,43,13.30
2012,06,25,07,44,13.30
2012,06,25,07,45,13.30
2012,06,25,07,46,13.30
2012,06,25,07,47,13.40
2012,06,25,07,48,13.40
2012,06,25,07,49,13.50
2012,06,25,07,50,13.50
2012,06,25,07,51,13.50
2012,06,25,07,52,13.50
2012,06,25,07,53,13.50
2012,06,25,07,54,13.50
2012,06,25,07,55,13.50
2012,06,25,07,56,13.50
2012,06,25,07,57,13.50
2012,06,25,07,58,13.50
2012,06,25,07,59,13.50
2012,06,25,08,00,13.60
2012,06,25,08,01,13.60
2012,06,25,08,02,13.60
2012,06,25,08,03,13.60
2012,06,25,08,04,13.50
2012,06,25,08,05,13.50
2012,06,25,08,06,13.50
2012,06,25,08,07,13.40
2012,06,25,08,08,13.30
2012,06,25,08,09,13.30
2012,06,25,08,10,13.30
2012,06,25,08,11,13.30
2012,06,25,08,12,13.30
2012,06,25,08,13,13.30
2012,06,25,08,14,13.30
2012,06,25,08,15,13.20
2012,06,25,08,16,13.10
2012,06,25,08,17,13.10
2012,06,25,08,18,13.00
2012,06,25,08,19,13.00
2012,06,25,08,20,12.90
2012,06,25,08,21,12.90
2012,06,25,08,22,13.00
2012,06,25,08,23,12.90
2012,06,25,08,24,12.90
2012,06,25,08,25,12.90
2012,06,25,08,26,12.90
2012,06,25,08,27,13.00
2012,06,25,08,28,13.00
2012,06,25,08,29,13.10
2012,06,25,08,30,13.20
2012,06,25,08,31,13.30
2012,06,25,08,32,13.30
2012,06,25,08,33,13.40
2012,06,25,08,34,13.40
2012,06,25,08,35,13.50
2012,06,25,08,36,13.50
2012,06,25,08,37,13.60
2012,06,25,08,38,13.70
2012,06,25,08,39,13.70
2012,06,25,08,40,13.80
2012,06,25,08,41,13.90
2012,06,25,08,42,13.90
2012,06,25,08,43,14.00
2012,06,25,08,44,14.00
2012,06,25,08,45,14.00
2012,06,25,08,46,14.10
2012,06,25,08,47,14.10
2012,06,25,08,48,14.10
2012,06,25,08,49,14.10
2012,06,25,08,50,14.10
2012,06,25,08,51,14.20
2012,06,25,08,52,14.20
2012,06,25,08,53,14.20
2012,06,25,08,54,14.20
2012,06,25,08,55,14.10
2012,06,25,08,56,14.10
2012,06,25,08,57,14.00
2012,06,25,08,58,13.90
2012,06,25,08,59,13.90
2012,06,25,09,00,13.90
2012,06,25,09,01,13.80
2012,06,25,09,02,13.80
2012,06,25,09,03,13.80
2012,06,25,09,04,13.80
2012,06,25,09,05,13.90
2012,06,25,09,06,13.90
2012,06,25,09,07,13.90
2012,06,25,09,08,13.90
2012,06,25,09,09,13.90
2012,06,25,09,10,13.90
2012,06,25,09,11,13.90
2012,06,25,09,12,13.90
2012,06,25,09,13,13.90
2012,06,25,09,14,13.90
2012,06,25,09,15,13.90
2012,06,25,09,16,14.00
2012,06,25,09,17,14.00
2012,06,25,09,18,14.00
2012,06,25,09,19,14.10
2012,06,25,09,20,14.10
2012,06,25,09,21,14.20
2012,06,25,09,22,14.20
2012,06,25,09,23,14.20
2012,06,25,09,24,14.20
2012,06,25,09,25,14.10
2012,06,25,09,26,14.10
2012,06,25,09,27,14.10
2012,06,25,09,28,14.10
2012,06,25,09,29,14.10
2012,06,25,09,30,14.10
2012,06,25,09,31,14.10
2012,06,25,09,32,14.20
2012,06,25,09,33,14.20
2012,06,25,09,34,14.20
2012,06,25,09,35,14.20
2012,06,25,09,36,14.20
2012,06,25,09,37,14.20
2012,06,25,09,38,14.20
2012,06,25,09,39,14.20
2012,06,25,09,40,14.20
2012,06,25,09,41,14.20
2012,06,25,09,42,14.20
2012,06,25,09,43,14.20
2012,06,25,09,44,14.20
2012,06,25,09,45,14.30
2012,06,25,09,46,14.40
2012,06,25,09,47,14.40
2012,06,25,09,48,14.50
2012,06,25,09,49,14.50
2012,06,25,09,50,14.60
2012,06,25,09,51,14.60
2012,06,25,09,52,14.50
2012,06,25,09,53,14.50
2012,06,25,09,54,14.40
2012,06,25,09,55,14.40
2012,06,25,09,56,14.40
2012,06,25,09,57,14.30
2012,06,25,09,58,14.40
2012,06,25,09,59,14.40
2012,06,25,10,00,14.50
2012,06,25,10,01,14.50
2012,06,25,10,02,14.60
2012,06,25,10,03,14.60
2012,06,25,10,04,14.60
2012,06,25,10,05,14.70
2012,06,25,10,06,14.70
2012,06,25,10,07,14.80
2012,06,25,10,08,14.80
2012,06,25,10,09,14.80
2012,06,25,10,10,14.80
2012,06,25,10,11,14.80
2012,06,25,10,12,14.80
2012,06,25,10,13,14.80
2012,06,25,10,14,14.90
2012,06,25,10,15,14.90
2012,06,25,10,16,14.90
2012,06,25,10,17,14.80
2012,06,25,10,18,14.80
2012,06,25,10,19,14.80
2012,06,25,10,20,14.70
2012,06,25,10,21,14.70
2012,06,25,10,22,14.80
2012,06,25,10,23,14.80
2012,06,25,10,24,14.70
2012,06,25,10,25,14.70
2012,06,25,10,26,14.60
2012,06,25,10,27,14.60
2012,06,25,10,28,14.60
2012,06,25,10,29,14.60
2012,06,25,10,30,14.60
2012,06,25,10,31,14.60
2012,06,25,10,32,14.60
2012,06,25,10,33,14.70
2012,06,25,10,34,14.70
2012,06,25,10,35,14.80
2012,06,25,10,36,14.80
2012,06,25,10,37,14.80
2012,06,25,10,38,14.90
2012,06,25,10,39,14.90
2012,06,25,10,40,14.90
2012,06,25,10,41,14.80
2012,06,25,10,42,14.80
2012,06,25,10,43,14.80
2012,06,25,10,44,14.80
2012,06,25,10,45,14.80
2012,06,25,10,46,14.80
2012,06,25,10,47,14.80
2012,06,25,10,48,14.70
2012,06,25,10,49,14.70
2012,06,25,10,50,14.60
2012,06,25,10,51,14.60
2012,06,25,10,52,14.60
2012,06,25,10,53,14.60
2012,06,25,10,54,14.60
2012,06,25,10,55,14.60
2012,06,25,10,56,14.60
2012,06,25,10,57,14.60
2012,06,25,10,58,14.70
2012,06,25,10,59,14.70
2012,06,25,11,00,14.80
2012,06,25,11,01,14.80
2012,06,25,11,02,14.80
2012,06,25,11,03,14.80
2012,06,25,11,04,14.90
2012,06,25,11,05,14.90
2012,06,25,11,06,15.00
2012,06,25,11,07,15.10
2012,06,25,11,08,15.20
2012,06,25,11,09,15.30
2012,06,25,11,10,15.30
2012,06,25,11,11,15.30
2012,06,25,11,12,15.40
2012,06,25,11,13,15.40
2012,06,25,11,14,15.50
2012,06,25,11,15,15.50
2012,06,25,11,16,15.50
2012,06,25,11,17,15.50
2012,06,25,11,18,15.50
2012,06,25,11,19,15.40
2012,06,25,11,20,15.40
2012,06,25,11,21,15.40
2012,06,25,11,22,15.50
2012,06,25,11,23,15.50
2012,06,25,11,24,15.60
2012,06,25,11,25,15.60
2012,06,25,11,26,15.50
2012,06,25,11,27,15.50
2012,06,25,11,28,15.50
2012,06,25,11,29,15.30
2012,06,25,11,30,15.30
2012,06,25,11,31,15.30
2012,06,25,11,32,15.30
2012,06,25,11,33,15.30
2012,06,25,11,34,15.30
2012,06,25,11,35,15.40
2012,06,25,11,36,15.40
2012,06,25,11,37,15.50
2012,06,25,11,38,15.60
2012,06,25,11,39,15.60
2012,06,25,11,40,15.70
2012,06,25,11,41,15.80
2012,06,25,11,42,15.80
2012,06,25,11,43,15.80
2012,06,25,11,44,15.80
2012,06,25,11,45,15.80
2012,06,25,11,46,15.80
2012,06,25,11,47,15.80
2012,06,25,11,48,15.80
2012,06,25,11,49,15.80
2012,06,25,11,50,15.70
2012,06,25,11,51,15.70
2012,06,25,11,52,15.70
2012,06,25,11,53,15.60
2012,06,25,11,54,15.60
2012,06,25,11,55,15.60
2012,06,25,11,56,15.70
2012,06,25,11,57,15.70
2012,06,25,11,58,15.70
2012,06,25,11,59,15.80
2012,06,25,12,00,15.80
2012,06,25,12,01,15.90
2012,06,25,12,02,15.90
2012,06,25,12,03,15.90
2012,06,25,12,04,15.90
2012,06,25,12,05,15.90
2012,06,25,12,06,16.00
2012,06,25,12,07,15.90
2012,06,25,12,08,15.90
2012,06,25,12,09,15.80
2012,06,25,12,10,15.80
2012,06,25,12,11,15.80
2012,06,25,12,12,15.80
2012,06,25,12,13,15.80
2012,06,25,12,14,15.90
2012,06,25,12,15,15.90
2012,06,25,12,16,16.10
2012,06,25,12,17,16.10
2012,06,25,12,18,16.10
2012,06,25,12,19,16.10
2012,06,25,12,20,16.10
2012,06,25,12,21,16.20
2012,06,25,12,22,16.20
2012,06,25,12,23,16.30
2012,06,25,12,24,16.30
2012,06,25,12,25,16.30
2012,06,25,12,26,16.30
2012,06,25,12,27,16.30
2012,06,25,12,28,16.30
2012,06,25,12,29,16.30
2012,06,25,12,30,16.40
2012,06,25,12,31,16.40
2012,06,25,12,32,16.40
2012,06,25,12,33,16.40
2012,06,25,12,34,16.40
2012,06,25,12,35,16.40
2012,06,25,12,36,16.30
2012,06,25,12,37,16.30
2012,06,25,12,38,16.30
2012,06,25,12,39,16.30
2012,06,25,12,40,16.30
2012,06,25,12,41,16.30
2012,06,25,12,42,16.30
2012,06,25,12,43,16.30
2012,06,25,12,44,16.30
2012,06,25,12,45,16.30
2012,06,25,12,46,16.30
2012,06,25,12,47,16.30
2012,06,25,12,48,16.30
2012,06,25,12,49,16.20
2012,06,25,12,50,16.10
2012,06,25,12,51,16.10
2012,06,25,12,52,16.10
2012,06,25,12,53,16.10
2012,06,25,12,54,16.10
2012,06,25,12,55,16.10
2012,06,25,12,56,16.10
2012,06,25,12,57,16.20
2012,06,25,12,58,16.20
2012,06,25,12,59,16.20
2012,06,25,13,00,16.20
2012,06,25,13,01,16.30
2012,06,25,13,02,16.20
2012,06,25,13,03,16.20
2012,06,25,13,04,16.10
2012,06,25,13,05,16.10
2012,06,25,13,06,16.10
2012,06,25,13,07,16.00
2012,06,25,13,08,15.90
2012,06,25,13,09,15.90
2012,06,25,13,10,15.90
2012,06,25,13,11,15.90
2012,06,25,13,12,15.90
2012,06,25,13,13,15.90
2012,06,25,13,14,15.90
2012,06,25,13,15,15.80
2012,06,25,13,16,15.90
2012,06,25,13,17,15.90
2012,06,25,13,18,15.90
2012,06,25,13,19,16.00
2012,06,25,13,20,16.10
2012,06,25,13,21,16.10
2012,06,25,13,22,16.10
2012,06,25,13,23,16.10
2012,06,25,13,24,16.10
2012,06,25,13,25,16.10
2012,06,25,13,26,16.10
2012,06,25,13,27,16.00
2012,06,25,13,28,15.90
2012,06,25,13,29,16.00
2012,06,25,13,30,16.10
2012,06,25,13,31,16.10
2012,06,25,13,32,16.10
2012,06,25,13,33,16.10
2012,06,25,13,34,16.20
2012,06,25,13,35,16.10
2012,06,25,13,36,16.10
2012,06,25,13,37,16.10
2012,06,25,13,38,16.00
2012,06,25,13,39,15.90
2012,06,25,13,40,15.80
2012,06,25,13,41,15.80
2012,06,25,13,42,15.80
2012,06,25,13,43,15.80
2012,06,25,13,44,15.80
2012,06,25,13,45,15.80
2012,06,25,13,46,15.90
2012,06,25,13,47,15.90
2012,06,25,13,48,15.90
2012,06,25,13,49,15.80
2012,06,25,13,50,15.80
2012,06,25,13,51,15.80
2012,06,25,13,52,15.80
2012,06,25,13,53,15.80
2012,06,25,13,54,15.80
2012,06,25,13,55,15.80
2012,06,25,13,56,15.70
2012,06,25,13,57,15.70
2012,06,25,13,58,15.70
2012,06,25,13,59,15.70
2012,06,25,14,00,15.60
2012,06,25,14,01,15.60
2012,06,25,14,02,15.70
2012,06,25,14,03,15.70
2012,06,25,14,04,15.80
2012,06,25,14,05,15.80
2012,06,25,14,06,15.80
2012,06,25,14,07,15.80
2012,06,25,14,08,15.80
2012,06,25,14,09,15.80
2012,06,25,14,10,15.90
2012,06,25,14,11,15.90
2012,06,25,14,12,15.90
2012,06,25,14,13,16.00
2012,06,25,14,14,16.10
2012,06,25,14,15,16.10
2012,06,25,14,16,16.00
2012,06,25,14,17,16.10
2012,06,25,14,18,15.90
2012,06,25,14,19,16.00
2012,06,25,14,20,16.10
2012,06,25,14,21,16.10
2012,06,25,14,22,16.10
2012,06,25,14,23,16.10
2012,06,25,14,24,16.10
2012,06,25,14,25,16.10
2012,06,25,14,26,16.20
2012,06,25,14,27,16.20
2012,06,25,14,28,16.20
2012,06,25,14,29,16.30
2012,06,25,14,30,16.30
2012,06,25,14,31,16.30
2012,06,25,14,32,16.30
2012,06,25,14,33,16.30
2012,06,25,14,34,16.30
2012,06,25,14,35,16.30
2012,06,25,14,36,16.40
2012,06,25,14,37,16.40
2012,06,25,14,38,16.40
2012,06,25,14,39,16.40
2012,06,25,14,40,16.40
2012,06,25,14,41,16.40
2012,06,25,14,42,16.40
2012,06,25,14,43,16.40
2012,06,25,14,44,16.40
2012,06,25,14,45,16.60
2012,06,25,14,46,16.60
2012,06,25,14,47,16.70
2012,06,25,14,48,16.80
2012,06,25,14,49,16.90
2012,06,25,14,50,17.00
2012,06,25,14,51,17.00
2012,06,25,14,52,17.10
2012,06,25,14,53,17.20
2012,06,25,14,54,17.30
2012,06,25,14,55,17.40
2012,06,25,14,56,17.50
2012,06,25,14,57,17.70
2012,06,25,14,58,17.70
2012,06,25,14,59,17.80
2012,06,25,15,00,17.90
2012,06,25,15,01,17.90
2012,06,25,15,02,18.10
2012,06,25,15,03,18.20
2012,06,25,15,04,18.30
2012,06,25,15,05,18.30
2012,06,25,15,06,18.40
2012,06,25,15,07,18.40
2012,06,25,15,08,18.40
2012,06,25,15,09,18.50
2012,06,25,15,10,18.70
2012,06,25,15,11,18.80
2012,06,25,15,12,18.90
2012,06,25,15,13,19.10
2012,06,25,15,14,19.10
2012,06,25,15,15,19.30
2012,06,25,15,16,19.40
2012,06,25,15,17,19.50
2012,06,25,15,18,19.60
2012,06,25,15,19,19.70
2012,06,25,15,20,19.70
2012,06,25,15,21,19.60
2012,06,25,15,22,19.60
2012,06,25,15,23,19.40
2012,06,25,15,24,19.30
2012,06,25,15,25,19.20
2012,06,25,15,26,19.10
2012,06,25,15,27,19.10
2012,06,25,15,28,19.10
2012,06,25,15,29,19.30
2012,06,25,15,30,19.40
2012,06,25,15,31,19.50
2012,06,25,15,32,19.50
2012,06,25,15,33,19.60
2012,06,25,15,34,19.80
2012,06,25,15,35,19.90
2012,06,25,15,36,19.90
2012,06,25,15,37,20.00
2012,06,25,15,38,20.10
2012,06,25,15,39,20.20
2012,06,25,15,40,20.20
2012,06,25,15,41,20.20
2012,06,25,15,42,20.30
2012,06,25,15,43,20.40
2012,06,25,15,44,20.30
2012,06,25,15,45,20.30
2012,06,25,15,46,20.30
2012,06,25,15,47,20.30
2012,06,25,15,48,20.30
2012,06,25,15,49,20.10
2012,06,25,15,50,19.90
2012,06,25,15,51,19.70
2012,06,25,15,52,19.50
2012,06,25,15,53,19.30
2012,06,25,15,54,19.10
2012,06,25,15,55,19.10
2012,06,25,15,56,19.10
2012,06,25,15,57,18.90
2012,06,25,15,58,18.90
2012,06,25,15,59,18.90
2012,06,25,16,00,18.80
2012,06,25,16,01,18.70
2012,06,25,16,02,18.70
2012,06,25,16,03,18.60
2012,06,25,16,04,18.50
2012,06,25,16,05,18.50
2012,06,25,16,06,18.40
2012,06,25,16,07,18.40
2012,06,25,16,08,18.40
2012,06,25,16,09,18.40
2012,06,25,16,10,18.40
2012,06,25,16,11,18.40
2012,06,25,16,12,18.40
2012,06,25,16,13,18.40
2012,06,25,16,14,18.40
2012,06,25,16,15,18.50
2012,06,25,16,16,18.50
2012,06,25,16,17,18.60
2012,06,25,16,18,18.60
2012,06,25,16,19,18.60
2012,06,25,16,20,18.50
2012,06,25,16,21,18.40
2012,06,25,16,22,18.40
2012,06,25,16,23,18.40
2012,06,25,16,24,18.50
2012,06,25,16,25,18.50
2012,06,25,16,26,18.50
2012,06,25,16,27,18.60
2012,06,25,16,28,18.60
2012,06,25,16,29,18.60
2012,06,25,16,30,18.60
2012,06,25,16,31,18.60
2012,06,25,16,32,18.70
2012,06,25,16,33,18.60
2012,06,25,16,34,18.60
2012,06,25,16,35,18.50
2012,06,25,16,36,18.50
2012,06,25,16,37,18.40
2012,06,25,16,38,18.40
2012,06,25,16,39,18.30
2012,06,25,16,40,18.30
2012,06,25,16,41,18.30
2012,06,25,16,42,18.30
2012,06,25,16,43,18.20
2012,06,25,16,44,18.20
2012,06,25,16,45,18.20
2012,06,25,16,46,18.20
2012,06,25,16,47,18.10
2012,06,25,16,48,17.90
2012,06,25,16,49,17.90
2012,06,25,16,50,17.70
2012,06,25,16,51,17.70
2012,06,25,16,52,17.60
2012,06,25,16,53,17.50
2012,06,25,16,54,17.50
2012,06,25,16,55,17.40
2012,06,25,16,56,17.30
2012,06,25,16,57,17.30
2012,06,25,16,58,17.30
2012,06,25,16,59,17.20
2012,06,25,17,00,17.20
2012,06,25,17,01,17.10
2012,06,25,17,02,17.00
2012,06,25,17,03,16.90
2012,06,25,17,04,16.80
2012,06,25,17,05,16.70
2012,06,25,17,06,16.70
2012,06,25,17,07,16.80
2012,06,25,17,08,16.80
2012,06,25,17,09,16.90
2012,06,25,17,10,16.90
2012,06,25,17,11,16.90
2012,06,25,17,12,16.90
2012,06,25,17,13,16.90
2012,06,25,17,14,16.90
2012,06,25,17,15,16.90
2012,06,25,17,16,16.90
2012,06,25,17,17,16.90
2012,06,25,17,18,17.00
2012,06,25,17,19,17.10
2012,06,25,17,20,17.20
2012,06,25,17,21,17.20
2012,06,25,17,22,17.20
2012,06,25,17,23,17.30
2012,06,25,17,24,17.30
2012,06,25,17,25,17.30
2012,06,25,17,26,17.20
2012,06,25,17,27,17.10
2012,06,25,17,28,17.00
2012,06,25,17,29,16.90
2012,06,25,17,30,16.80
2012,06,25,17,31,16.70
2012,06,25,17,32,16.50
2012,06,25,17,33,16.40
2012,06,25,17,34,16.40
2012,06,25,17,35,16.20
2012,06,25,17,36,16.10
2012,06,25,17,37,16.00